| time (UTC) | temp F | wind direction | speed knots | gust knots | rain 1hr in | rain 24hr in | rain mn in | humidity % | barometer mb |
| 20260506061553 | 80 | 179 | 0.9 | 7.8 | 0.00 | 0.00 | 0.00 | 85 | 1008.2 |
| 20260506061401 | 80 | 331 | 0.9 | 7.0 | 0.00 | 0.00 | 0.00 | 85 | 1008.0 |
| 20260506060901 | 80 | 245 | 1.7 | 7.0 | 0.00 | 0.00 | 0.00 | 85 | 1008.2 |
| 20260506060402 | 80 | 141 | 0.9 | 7.8 | 0.00 | 0.00 | 0.00 | 85 | 1008.1 |
| 20260506051402 | 81 | 217 | 0.9 | 7.0 | 0.00 | 0.00 | 0.00 | 84 | 1008.4 |
| 20260506050903 | 81 | 304 | 0.0 | 7.0 | 0.00 | 0.00 | 0.00 | 84 | 1008.4 |
| 20260506050402 | 81 | 88 | 0.0 | 4.3 | 0.00 | 0.00 | 0.00 | 84 | 1008.5 |
| 20260506044902 | 81 | 217 | 0.9 | 7.8 | 0.00 | 0.00 | 0.00 | 83 | 1008.6 |
| 20260506044555 | 80 | 0 | 0.0 | 7.8 | 0.00 | 0.00 | 0.00 | 83 | 1008.9 |
| 20260506044401 | 81 | 81 | 0.9 | 8.7 | 0.00 | 0.00 | 0.00 | 83 | 1008.6 |
| 20260506043902 | 81 | 250 | 0.9 | 8.7 | 0.00 | 0.00 | 0.00 | 83 | 1008.6 |
| 20260506043401 | 81 | 290 | 0.9 | 5.2 | 0.00 | 0.00 | 0.00 | 83 | 1008.6 |
| 20260506043050 | 81 | 0 | 0.0 | 7.0 | 0.00 | 0.00 | 0.00 | 82 | 1008.9 |
| 20260506042901 | 81 | 205 | 0.0 | 7.0 | 0.00 | 0.00 | 0.00 | 83 | 1008.5 |
| 20260506042401 | 81 | 165 | 1.7 | 7.8 | 0.00 | 0.00 | 0.00 | 83 | 1008.7 |
| 20260506041901 | 81 | 63 | 0.9 | 7.8 | 0.00 | 0.00 | 0.00 | 83 | 1008.7 |
| 20260506041603 | 81 | 0 | 1.7 | 8.7 | 0.00 | 0.00 | 0.00 | 82 | 1008.9 |
| 20260506041400 | 81 | 69 | 1.7 | 6.1 | 0.00 | 0.00 | 0.00 | 83 | 1008.7 |
| 20260506040902 | 81 | 13 | 0.0 | 6.1 | 0.00 | 0.00 | 0.00 | 83 | 1008.6 |
| 20260506040403 | 81 | 354 | 0.0 | 7.8 | 0.00 | 0.00 | 0.00 | 82 | 1008.6 |
| 20260506040050 | 81 | 68 | 0.9 | 8.7 | 0.00 | 0.00 | 0.00 | 82 | 1008.9 |
| 20260506035903 | 81 | 326 | 0.9 | 7.8 | 0.00 | 0.00 | 0.00 | 82 | 1008.6 |
| 20260506035402 | 81 | 288 | 0.9 | 6.1 | 0.00 | 0.00 | 0.00 | 82 | 1008.4 |
| 20260506034901 | 81 | 118 | 0.9 | 7.0 | 0.00 | 0.00 | 0.00 | 82 | 1008.3 |
| 20260506034547 | 81 | 0 | 0.0 | 8.7 | 0.00 | 0.00 | 0.00 | 81 | 1008.6 |
| 20260506034400 | 81 | 160 | 1.7 | 7.0 | 0.00 | 0.00 | 0.00 | 82 | 1008.4 |
| 20260506033901 | 81 | 271 | 1.7 | 9.6 | 0.00 | 0.00 | 0.00 | 82 | 1008.3 |
| 20260506033401 | 81 | 72 | 0.0 | 9.6 | 0.00 | 0.00 | 0.00 | 82 | 1008.1 |
| 20260506033058 | 81 | 187 | 0.9 | 8.7 | 0.00 | 0.00 | 0.00 | 81 | 1008.3 |
| 20260506032901 | 81 | 234 | 1.7 | 7.8 | 0.00 | 0.00 | 0.00 | 82 | 1008.1 |
| 20260506032842 | 81 | 212 | 3.5 | 7.8 | 0.00 | 0.00 | 0.00 | 81 | 1008.0 |
| 20260506031901 | 82 | 296 | 0.9 | 9.6 | 0.00 | 0.00 | 0.00 | 82 | 1008.0 |
| 20260506031621 | 82 | 306 | 1.7 | 9.6 | 0.00 | 0.00 | 0.00 | 81 | 1008.0 |
| 20260506031554 | 81 | 30 | 2.6 | 9.6 | 0.00 | 0.00 | 0.00 | 81 | 1008.3 |
| 20260506030902 | 82 | 147 | 1.7 | 8.7 | 0.00 | 0.00 | 0.00 | 81 | 1008.0 |
| 20260506030649 | 82 | 167 | 2.6 | 8.7 | 0.00 | 0.00 | 0.00 | 81 | 1007.9 |
| 20260506030052 | 81 | 202 | 0.9 | 7.0 | 0.00 | 0.00 | 0.00 | 80 | 1008.0 |
| 20260506025902 | 82 | 94 | 0.0 | 7.8 | 0.00 | 0.00 | 0.00 | 81 | 1007.8 |
| 20260506025847 | 82 | 301 | 1.7 | 7.0 | 0.00 | 0.00 | 0.00 | 81 | 1007.7 |
| 20260506024902 | 82 | 181 | 0.9 | 7.0 | 0.00 | 0.00 | 0.00 | 81 | 1007.7 |
| 20260506024552 | 81 | 312 | 0.0 | 10.4 | 0.00 | 0.00 | 0.00 | 80 | 1007.9 |
| 20260506024401 | 82 | 202 | 0.9 | 11.3 | 0.00 | 0.00 | 0.00 | 81 | 1007.6 |
| 20260506023901 | 82 | 222 | 2.6 | 11.3 | 0.00 | 0.00 | 0.00 | 81 | 1007.5 |
| 20260506023401 | 82 | 108 | 1.7 | 9.6 | 0.00 | 0.00 | 0.00 | 81 | 1007.4 |
| 20260506023052 | 81 | 269 | 0.9 | 8.7 | 0.00 | 0.00 | 0.00 | 80 | 1007.7 |
| 20260506022902 | 82 | 24 | 0.9 | 7.8 | 0.00 | 0.00 | 0.00 | 80 | 1007.3 |
| 20260506022403 | 82 | 147 | 1.7 | 7.8 | 0.00 | 0.00 | 0.00 | 80 | 1007.4 |
| 20260506021902 | 82 | 311 | 0.0 | 7.8 | 0.00 | 0.00 | 0.00 | 80 | 1007.3 |
| 20260506021545 | 82 | 0 | 0.9 | 7.0 | 0.00 | 0.00 | 0.00 | 79 | 1007.4 |
| 20260506021401 | 82 | 143 | 0.0 | 7.8 | 0.00 | 0.00 | 0.00 | 80 | 1007.2 |
| 20260506020902 | 82 | 309 | 0.0 | 7.8 | 0.00 | 0.00 | 0.00 | 80 | 1007.2 |
| 20260506020403 | 82 | 328 | 1.7 | 7.8 | 0.00 | 0.00 | 0.00 | 80 | 1007.0 |
| 20260506020052 | 82 | 105 | 0.9 | 8.7 | 0.00 | 0.00 | 0.00 | 79 | 1007.2 |
| 20260506015902 | 82 | 254 | 0.9 | 7.0 | 0.00 | 0.00 | 0.00 | 79 | 1006.9 |
| 20260506015403 | 82 | 148 | 0.9 | 10.4 | 0.00 | 0.00 | 0.00 | 79 | 1006.7 |
| 20260506014902 | 83 | 307 | 0.9 | 10.4 | 0.00 | 0.00 | 0.00 | 79 | 1006.7 |
| 20260506014557 | 82 | 58 | 0.0 | 7.8 | 0.00 | 0.00 | 0.00 | 78 | 1006.9 |
| 20260506014402 | 83 | 200 | 0.9 | 7.0 | 0.00 | 0.00 | 0.00 | 78 | 1006.7 |
| 20260506014120 | 83 | 49 | 0.0 | 7.8 | 0.00 | 0.00 | 0.00 | 78 | 1006.7 |
| 20260506013403 | 83 | 218 | 0.9 | 10.4 | 0.00 | 0.00 | 0.00 | 78 | 1006.6 |
| 20260506013055 | 82 | 248 | 2.6 | 10.4 | 0.00 | 0.00 | 0.00 | 77 | 1006.9 |
| 20260506012903 | 83 | 331 | 3.5 | 10.4 | 0.00 | 0.00 | 0.00 | 78 | 1006.6 |
| 20260506012403 | 83 | 354 | 0.9 | 10.4 | 0.00 | 0.00 | 0.00 | 77 | 1006.6 |
| 20260506011903 | 83 | 95 | 1.7 | 10.4 | 0.00 | 0.00 | 0.00 | 77 | 1006.3 |
| 20260506011548 | 83 | 323 | 0.9 | 10.4 | 0.00 | 0.00 | 0.00 | 77 | 1006.6 |
| 20260506011402 | 83 | 290 | 0.9 | 7.0 | 0.00 | 0.00 | 0.00 | 77 | 1006.3 |
| 20260506010902 | 83 | 328 | 0.9 | 7.0 | 0.00 | 0.00 | 0.00 | 77 | 1006.2 |
| 20260506010402 | 83 | 11 | 0.0 | 7.8 | 0.00 | 0.00 | 0.00 | 77 | 1006.1 |
| 20260506010048 | 83 | 105 | 0.9 | 9.6 | 0.00 | 0.00 | 0.00 | 76 | 1006.2 |
| 20260506005902 | 83 | 354 | 0.9 | 10.4 | 0.00 | 0.00 | 0.00 | 76 | 1006.1 |
| 20260506005402 | 84 | 177 | 0.9 | 10.4 | 0.00 | 0.00 | 0.00 | 76 | 1006.0 |
| 20260506004902 | 84 | 358 | 1.7 | 11.3 | 0.00 | 0.00 | 0.00 | 75 | 1006.0 |
| 20260506004555 | 84 | 153 | 1.7 | 11.3 | 0.00 | 0.00 | 0.00 | 74 | 1006.3 |
| 20260506004402 | 85 | 263 | 1.7 | 11.3 | 0.00 | 0.00 | 0.00 | 74 | 1006.0 |
| 20260506004123 | 85 | 44 | 0.9 | 7.8 | 0.00 | 0.00 | 0.00 | 74 | 1005.9 |
| 20260506003846 | 85 | 313 | 0.9 | 7.8 | 0.00 | 0.00 | 0.00 | 74 | 1005.9 |
| 20260506003128 | 86 | 195 | 0.9 | 7.8 | 0.00 | 0.00 | 0.00 | 73 | 1005.8 |
| 20260506003050 | 85 | 292 | 0.9 | 9.6 | 0.00 | 0.00 | 0.00 | 73 | 1006.1 |
| 20260506002403 | 86 | 352 | 1.7 | 7.8 | 0.00 | 0.00 | 0.00 | 73 | 1005.8 |
| 20260506001902 | 86 | 165 | 3.5 | 8.7 | 0.00 | 0.00 | 0.00 | 72 | 1005.6 |
| 20260506001609 | 86 | 219 | 0.9 | 11.3 | 0.00 | 0.00 | 0.00 | 71 | 1005.9 |
| 20260506001401 | 87 | 223 | 1.7 | 11.3 | 0.00 | 0.00 | 0.00 | 71 | 1005.5 |
| 20260506000900 | 87 | 261 | 3.5 | 11.3 | 0.00 | 0.00 | 0.00 | 71 | 1005.4 |
| 20260506000401 | 87 | 174 | 1.7 | 6.1 | 0.00 | 0.00 | 0.00 | 70 | 1005.4 |
| 20260506000055 | 87 | 233 | 0.9 | 9.6 | 0.00 | 0.00 | 0.00 | 69 | 1005.8 |
| 20260505235901 | 88 | 111 | 1.7 | 9.6 | 0.00 | 0.00 | 0.00 | 69 | 1005.4 |
| 20260505235401 | 88 | 280 | 0.9 | 9.6 | 0.00 | 0.00 | 0.00 | 68 | 1005.4 |
| 20260505234901 | 89 | 139 | 2.6 | 8.7 | 0.00 | 0.00 | 0.00 | 68 | 1005.2 |
| 20260505234553 | 88 | 239 | 0.9 | 6.1 | 0.00 | 0.00 | 0.00 | 67 | 1005.5 |
| 20260505234401 | 89 | 105 | 1.7 | 6.1 | 0.00 | 0.00 | 0.00 | 68 | 1005.3 |
| 20260505233900 | 89 | 134 | 0.0 | 6.1 | 0.00 | 0.00 | 0.00 | 67 | 1005.3 |
| 20260505233403 | 89 | 181 | 1.7 | 8.7 | 0.00 | 0.00 | 0.00 | 67 | 1005.3 |
| 20260505233056 | 89 | 248 | 0.9 | 9.6 | 0.00 | 0.00 | 0.00 | 66 | 1005.5 |
| 20260505232901 | 89 | 214 | 1.7 | 10.4 | 0.00 | 0.00 | 0.00 | 67 | 1005.1 |
| 20260505232401 | 89 | 109 | 2.6 | 10.4 | 0.00 | 0.00 | 0.00 | 67 | 1005.2 |
| 20260505231901 | 89 | 33 | 1.7 | 10.4 | 0.00 | 0.00 | 0.00 | 67 | 1005.1 |
| 20260505231553 | 89 | 16 | 3.5 | 9.6 | 0.00 | 0.00 | 0.00 | 66 | 1005.4 |
| 20260505231400 | 89 | 20 | 5.2 | 8.7 | 0.00 | 0.00 | 0.00 | 67 | 1005.3 |
| 20260505230901 | 89 | 135 | 1.7 | 8.7 | 0.00 | 0.00 | 0.00 | 66 | 1005.2 |
| 20260505230403 | 90 | 294 | 0.9 | 8.7 | 0.00 | 0.00 | 0.00 | 66 | 1005.3 |
| 20260505230056 | 89 | 271 | 0.9 | 9.6 | 0.00 | 0.00 | 0.00 | 65 | 1005.7 |
| 20260505225903 | 90 | 225 | 2.6 | 8.7 | 0.00 | 0.00 | 0.00 | 66 | 1005.3 |
| 20260505225401 | 90 | 322 | 1.7 | 7.8 | 0.00 | 0.00 | 0.00 | 65 | 1005.3 |
| 20260505224901 | 90 | 300 | 1.7 | 8.7 | 0.00 | 0.00 | 0.00 | 65 | 1005.2 |
| 20260505224633 | 91 | 355 | 3.5 | 8.7 | 0.00 | 0.00 | 0.00 | 65 | 1005.2 |
| 20260505224548 | 90 | 316 | 2.6 | 8.7 | 0.00 | 0.00 | 0.00 | 64 | 1005.6 |
| 20260505223900 | 92 | 207 | 0.9 | 7.8 | 0.00 | 0.00 | 0.00 | 65 | 1005.3 |
| 20260505223403 | 91 | 245 | 0.9 | 7.8 | 0.00 | 0.00 | 0.00 | 64 | 1005.4 |
| 20260505223058 | 91 | 198 | 2.6 | 9.6 | 0.00 | 0.00 | 0.00 | 64 | 1005.6 |
| 20260505222903 | 91 | 259 | 2.6 | 8.7 | 0.00 | 0.00 | 0.00 | 64 | 1005.5 |
| 20260505222402 | 91 | 268 | 1.7 | 9.6 | 0.00 | 0.00 | 0.00 | 64 | 1005.4 |
| 20260505221902 | 91 | 238 | 5.2 | 9.6 | 0.00 | 0.00 | 0.00 | 64 | 1005.5 |
| 20260505221620 | 91 | 101 | 3.5 | 9.6 | 0.00 | 0.00 | 0.00 | 63 | 1005.4 |
| 20260505221555 | 91 | 260 | 2.6 | 9.6 | 0.00 | 0.00 | 0.00 | 63 | 1005.6 |
| 20260505220902 | 92 | 200 | 3.5 | 8.7 | 0.00 | 0.00 | 0.00 | 63 | 1005.6 |
| 20260505220403 | 92 | 349 | 3.5 | 10.4 | 0.00 | 0.00 | 0.00 | 63 | 1005.5 |
| 20260505220047 | 91 | 240 | 1.7 | 9.6 | 0.00 | 0.00 | 0.00 | 63 | 1005.8 |
| 20260505215902 | 92 | 347 | 3.5 | 10.4 | 0.00 | 0.00 | 0.00 | 63 | 1005.5 |
| 20260505215628 | 92 | 195 | 3.5 | 9.6 | 0.00 | 0.00 | 0.00 | 63 | 1005.4 |
| 20260505215122 | 92 | 41 | 4.3 | 7.8 | 0.00 | 0.00 | 0.00 | 63 | 1005.6 |
| 20260505214558 | 92 | 179 | 0.9 | 10.4 | 0.00 | 0.00 | 0.00 | 62 | 1005.9 |
| 20260505214402 | 92 | 103 | 0.9 | 10.4 | 0.00 | 0.00 | 0.00 | 63 | 1005.6 |
| 20260505214124 | 92 | 297 | 2.6 | 10.4 | 0.00 | 0.00 | 0.00 | 62 | 1005.8 |
| 20260505213621 | 92 | 348 | 2.6 | 9.6 | 0.00 | 0.00 | 0.00 | 63 | 1005.9 |
| 20260505213058 | 92 | 0 | 2.6 | 9.6 | 0.00 | 0.00 | 0.00 | 62 | 1006.1 |
| 20260505212901 | 92 | 182 | 4.3 | 9.6 | 0.00 | 0.00 | 0.00 | 62 | 1006.0 |
| 20260505212401 | 93 | 60 | 3.5 | 9.6 | 0.00 | 0.00 | 0.00 | 62 | 1005.8 |
| 20260505211900 | 93 | 213 | 3.5 | 7.8 | 0.00 | 0.00 | 0.00 | 62 | 1006.0 |
| 20260505211632 | 93 | 74 | 1.7 | 9.6 | 0.00 | 0.00 | 0.00 | 62 | 1006.1 |
| 20260505211548 | 92 | 82 | 1.7 | 8.7 | 0.00 | 0.00 | 0.00 | 62 | 1006.3 |
| 20260505210901 | 93 | 265 | 0.9 | 9.6 | 0.00 | 0.00 | 0.00 | 62 | 1006.1 |
| 20260505210415 | 93 | 209 | 1.7 | 8.7 | 0.00 | 0.00 | 0.00 | 62 | 1006.2 |
| 20260505210056 | 92 | 0 | 1.7 | 8.7 | 0.00 | 0.00 | 0.00 | 61 | 1006.4 |
| 20260505205903 | 93 | 18 | 1.7 | 8.7 | 0.00 | 0.00 | 0.00 | 64 | 1006.1 |
| 20260505205648 | 93 | 139 | 1.7 | 7.8 | 0.00 | 0.00 | 0.00 | 61 | 1006.1 |
| 20260505205120 | 94 | 223 | 2.6 | 12.2 | 0.00 | 0.00 | 0.00 | 61 | 1006.2 |
| 20260505204549 | 93 | 267 | 1.7 | 11.3 | 0.00 | 0.00 | 0.00 | 60 | 1006.5 |
| 20260505204402 | 94 | 84 | 0.9 | 12.2 | 0.00 | 0.00 | 0.00 | 60 | 1006.2 |
| 20260505203900 | 94 | 296 | 3.5 | 9.6 | 0.00 | 0.00 | 0.00 | 61 | 1006.3 |
| 20260505203401 | 94 | 329 | 1.7 | 9.6 | 0.00 | 0.00 | 0.00 | 59 | 1006.3 |
| 20260505203052 | 93 | 0 | 1.7 | 9.6 | 0.00 | 0.00 | 0.00 | 60 | 1006.6 |
| 20260505202901 | 94 | 67 | 0.9 | 8.7 | 0.00 | 0.00 | 0.00 | 59 | 1006.3 |
| 20260505202401 | 94 | 278 | 0.9 | 8.7 | 0.00 | 0.00 | 0.00 | 60 | 1006.3 |
| 20260505201901 | 94 | 226 | 0.9 | 7.0 | 0.00 | 0.00 | 0.00 | 60 | 1006.4 |
| 20260505201557 | 93 | 26 | 1.7 | 8.7 | 0.00 | 0.00 | 0.00 | 59 | 1006.7 |
| 20260505201359 | 94 | 229 | 1.7 | 8.7 | 0.00 | 0.00 | 0.00 | 59 | 1006.4 |
| 20260505200856 | 94 | 285 | 0.9 | 8.7 | 0.00 | 0.00 | 0.00 | 59 | 1006.5 |
| 20260505200356 | 94 | 290 | 3.5 | 7.8 | 0.00 | 0.00 | 0.00 | 59 | 1006.5 |
| 20260505200048 | 94 | 150 | 0.9 | 10.4 | 0.00 | 0.00 | 0.00 | 59 | 1006.7 |
| 20260505195855 | 94 | 281 | 0.0 | 8.7 | 0.00 | 0.00 | 0.00 | 62 | 1006.5 |
| 20260505195354 | 93 | 194 | 2.6 | 9.6 | 0.00 | 0.00 | 0.00 | 60 | 1006.7 |
| 20260505194854 | 93 | 59 | 4.3 | 9.6 | 0.00 | 0.00 | 0.00 | 61 | 1006.8 |
| 20260505194837 | 93 | 10 | 1.7 | 8.7 | 0.00 | 0.00 | 0.00 | 61 | 1006.8 |
| 20260505194548 | 93 | 308 | 0.0 | 7.8 | 0.00 | 0.00 | 0.00 | 61 | 1007.1 |
| 20260505193853 | 92 | 131 | 3.5 | 8.7 | 0.00 | 0.00 | 0.00 | 62 | 1006.8 |
| 20260505193352 | 93 | 186 | 3.5 | 8.7 | 0.00 | 0.00 | 0.00 | 60 | 1006.8 |
| 20260505193051 | 93 | 63 | 1.7 | 8.7 | 0.00 | 0.00 | 0.00 | 59 | 1007.2 |
| 20260505192852 | 94 | 333 | 0.9 | 9.6 | 0.00 | 0.00 | 0.00 | 59 | 1006.9 |
| 20260505192352 | 94 | 51 | 2.6 | 9.6 | 0.00 | 0.00 | 0.00 | 60 | 1007.2 |
| 20260505191851 | 93 | 177 | 0.9 | 7.0 | 0.00 | 0.00 | 0.00 | 61 | 1007.2 |
| 20260505191556 | 93 | 234 | 0.9 | 7.0 | 0.00 | 0.00 | 0.00 | 60 | 1007.4 |
| 20260505191350 | 93 | 165 | 0.9 | 5.2 | 0.00 | 0.00 | 0.00 | 60 | 1007.3 |
| 20260505191112 | 93 | 202 | 0.9 | 4.3 | 0.00 | 0.00 | 0.00 | 60 | 1007.3 |
| 20260505190608 | 93 | 315 | 0.9 | 9.6 | 0.00 | 0.00 | 0.00 | 61 | 1007.4 |
| 20260505190104 | 92 | 328 | 0.9 | 10.4 | 0.00 | 0.00 | 0.00 | 61 | 1007.8 |
| 20260505185846 | 93 | 17 | 1.7 | 9.6 | 0.00 | 0.00 | 0.00 | 60 | 1007.5 |
| 20260505185346 | 93 | 148 | 1.7 | 7.8 | 0.00 | 0.00 | 0.00 | 60 | 1007.6 |
| 20260505184845 | 93 | 265 | 0.9 | 6.1 | 0.00 | 0.00 | 0.00 | 59 | 1007.6 |
| 20260505184604 | 93 | 356 | 0.0 | 7.8 | 0.00 | 0.00 | 0.00 | 61 | 1007.9 |
| 20260505184344 | 93 | 305 | 0.0 | 7.8 | 0.00 | 0.00 | 0.00 | 62 | 1007.7 |
| 20260505183831 | 92 | 266 | 1.7 | 7.8 | 0.00 | 0.00 | 0.00 | 59 | 1007.8 |
| 20260505183329 | 92 | 200 | 2.6 | 6.1 | 0.00 | 0.00 | 0.00 | 60 | 1007.8 |
| 20260505183052 | 91 | 276 | 2.6 | 8.7 | 0.00 | 0.00 | 0.00 | 61 | 1008.1 |
| 20260505182828 | 92 | 154 | 1.7 | 11.3 | 0.00 | 0.00 | 0.00 | 62 | 1007.9 |
| 20260505182329 | 91 | 243 | 0.9 | 11.3 | 0.00 | 0.00 | 0.00 | 62 | 1008.1 |
| 20260505182117 | 91 | 210 | 4.3 | 11.3 | 0.00 | 0.00 | 0.00 | 61 | 1008.1 |
| 20260505181551 | 91 | 276 | 2.6 | 11.3 | 0.00 | 0.00 | 0.00 | 63 | 1008.3 |
| 20260505181544 | 91 | 93 | 0.9 | 11.3 | 0.00 | 0.00 | 0.00 | 61 | 1008.5 |
| 20260505180828 | 92 | 207 | 0.9 | 8.7 | 0.00 | 0.00 | 0.00 | 62 | 1008.4 |
| 20260505180548 | 91 | 236 | 1.7 | 8.7 | 0.00 | 0.00 | 0.00 | 62 | 1008.5 |
| 20260505180051 | 90 | 0 | 0.9 | 9.6 | 0.00 | 0.00 | 0.00 | 63 | 1008.8 |
| 20260505175829 | 91 | 76 | 2.6 | 9.6 | 0.00 | 0.00 | 0.00 | 63 | 1008.4 |
| 20260505175329 | 90 | 19 | 1.7 | 9.6 | 0.00 | 0.00 | 0.00 | 63 | 1008.5 |
| 20260505174829 | 91 | 13 | 0.9 | 7.8 | 0.00 | 0.00 | 0.00 | 62 | 1008.5 |
| 20260505174550 | 90 | 0 | 0.9 | 8.7 | 0.00 | 0.00 | 0.00 | 62 | 1008.8 |
| 20260505174328 | 90 | 131 | 0.9 | 7.8 | 0.00 | 0.00 | 0.00 | 64 | 1008.7 |
| 20260505173828 | 90 | 282 | 2.6 | 7.8 | 0.00 | 0.00 | 0.00 | 63 | 1008.7 |
| 20260505173329 | 90 | 229 | 1.7 | 8.7 | 0.00 | 0.00 | 0.00 | 65 | 1008.7 |
| 20260505173049 | 89 | 255 | 1.7 | 13.9 | 0.00 | 0.00 | 0.00 | 63 | 1009.0 |
| 20260505172830 | 90 | 119 | 1.7 | 13.9 | 0.00 | 0.00 | 0.00 | 65 | 1008.7 |
| 20260505172331 | 89 | 59 | 1.7 | 13.9 | 0.00 | 0.00 | 0.00 | 65 | 1008.7 |
| 20260505171830 | 89 | 269 | 0.9 | 8.7 | 0.00 | 0.00 | 0.00 | 65 | 1008.6 |
| 20260505171550 | 88 | 0 | 2.6 | 10.4 | 0.00 | 0.00 | 0.00 | 65 | 1008.8 |
| 20260505171330 | 88 | 308 | 2.6 | 10.4 | 0.00 | 0.00 | 0.00 | 66 | 1008.7 |
| 20260505170829 | 88 | 37 | 1.7 | 10.4 | 0.00 | 0.00 | 0.00 | 67 | 1008.6 |
| 20260505170328 | 88 | 105 | 0.0 | 6.1 | 0.00 | 0.00 | 0.00 | 69 | 1008.8 |
| 20260505170057 | 87 | 0 | 1.7 | 8.7 | 0.00 | 0.00 | 0.00 | 67 | 1009.2 |
| 20260505165329 | 88 | 334 | 0.0 | 8.7 | 0.00 | 0.00 | 0.00 | 68 | 1009.0 |
| 20260505164830 | 87 | 1 | 1.7 | 8.7 | 0.00 | 0.00 | 0.00 | 67 | 1009.0 |
| 20260505164549 | 87 | 0 | 0.0 | 5.2 | 0.00 | 0.00 | 0.00 | 67 | 1009.4 |
| 20260505164329 | 87 | 206 | 0.0 | 6.1 | 0.00 | 0.00 | 0.00 | 69 | 1009.1 |
| 20260505163829 | 87 | 307 | 0.9 | 6.1 | 0.00 | 0.00 | 0.00 | 68 | 1009.2 |
| 20260505163328 | 86 | 52 | 0.0 | 7.0 | 0.00 | 0.00 | 0.00 | 69 | 1009.2 |
| 20260505163102 | 86 | 322 | 0.9 | 9.6 | 0.00 | 0.00 | 0.00 | 68 | 1009.5 |
| 20260505163052 | 87 | 229 | 0.9 | 7.8 | 0.00 | 0.00 | 0.00 | 70 | 1009.2 |
| 20260505162816 | 86 | 182 | 0.0 | 9.6 | 0.00 | 0.00 | 0.00 | 71 | 1009.3 |
| 20260505161819 | 86 | 184 | 1.7 | 7.0 | 0.00 | 0.00 | 0.00 | 70 | 1009.4 |
| 20260505161556 | 86 | 0 | 1.7 | 10.4 | 0.00 | 0.00 | 0.00 | 69 | 1009.6 |
| 20260505161317 | 86 | 256 | 1.7 | 10.4 | 0.00 | 0.00 | 0.00 | 69 | 1009.4 |
| 20260505160816 | 86 | 77 | 2.6 | 10.4 | 0.00 | 0.00 | 0.00 | 70 | 1009.4 |
| 20260505160316 | 86 | 311 | 1.7 | 9.6 | 0.00 | 0.00 | 0.00 | 70 | 1009.5 |
| 20260505153106 | 83 | 278 | 0.9 | 8.7 | 0.00 | 0.00 | 0.00 | 74 | 1009.9 |
| 20260505152804 | 84 | 204 | 1.7 | 7.0 | 0.00 | 0.00 | 0.00 | 75 | 1009.5 |
| 20260505152305 | 84 | 214 | 0.9 | 10.4 | 0.00 | 0.00 | 0.00 | 74 | 1009.5 |
| 20260505151803 | 84 | 346 | 2.6 | 10.4 | 0.00 | 0.00 | 0.00 | 75 | 1009.5 |
| 20260505151555 | 83 | 0 | 1.7 | 10.4 | 0.00 | 0.00 | 0.00 | 74 | 1009.8 |
| 20260505151303 | 83 | 201 | 0.9 | 9.6 | 0.00 | 0.00 | 0.00 | 75 | 1009.6 |
| 20260505150803 | 84 | 321 | 0.9 | 9.6 | 0.00 | 0.00 | 0.00 | 75 | 1009.4 |
| 20260505150309 | 83 | 86 | 0.0 | 8.7 | 0.00 | 0.00 | 0.00 | 76 | 1009.6 |
| 20260505150112 | 83 | 0 | 0.9 | 8.7 | 0.00 | 0.00 | 0.00 | 76 | 1010.0 |
| 20260505140302 | 80 | 182 | 1.7 | 7.8 | 0.00 | 0.00 | 0.00 | 82 | 1009.5 |
| 20260505140104 | 79 | 221 | 0.9 | 6.1 | 0.00 | 0.00 | 0.00 | 82 | 1009.9 |
| 20260505124802 | 77 | 293 | 0.9 | 5.2 | 0.00 | 0.00 | 0.00 | 88 | 1009.5 |
| 20260505124548 | 76 | 0 | 0.0 | 4.3 | 0.00 | 0.00 | 0.00 | 88 | 1009.8 |
| 20260505124302 | 77 | 326 | 0.0 | 5.2 | 0.00 | 0.00 | 0.00 | 88 | 1009.4 |
| 20260505123802 | 77 | 105 | 0.0 | 6.1 | 0.00 | 0.00 | 0.00 | 88 | 1009.4 |
| 20260505123302 | 76 | 113 | 0.9 | 6.1 | 0.00 | 0.00 | 0.00 | 88 | 1009.3 |
| 20260505123106 | 76 | 215 | 0.0 | 4.3 | 0.00 | 0.00 | 0.00 | 88 | 1009.6 |
| 20260505123028 | 76 | 245 | 0.0 | 5.2 | 0.00 | 0.00 | 0.00 | 88 | 1009.4 |
| 20260505122305 | 76 | 222 | 0.0 | 5.2 | 0.00 | 0.00 | 0.00 | 88 | 1009.3 |
| 20260505122050 | 76 | 295 | 0.0 | 3.5 | 0.00 | 0.00 | 0.00 | 88 | 1009.3 |
| 20260505121550 | 76 | 0 | 0.0 | 2.6 | 0.00 | 0.00 | 0.00 | 87 | 1009.7 |
| 20260505121302 | 76 | 246 | 0.0 | 4.3 | 0.00 | 0.00 | 0.00 | 88 | 1009.4 |
| 20260505120801 | 76 | 10 | 0.0 | 5.2 | 0.00 | 0.00 | 0.00 | 87 | 1009.2 |
| 20260505120301 | 76 | 323 | 0.9 | 5.2 | 0.00 | 0.00 | 0.00 | 87 | 1009.2 |
| 20260505120053 | 76 | 300 | 0.0 | 6.1 | 0.00 | 0.00 | 0.00 | 87 | 1009.4 |
| 20260505115802 | 77 | 4 | 0.9 | 5.2 | 0.00 | 0.00 | 0.00 | 87 | 1009.1 |
| 20260505115304 | 77 | 151 | 0.9 | 6.1 | 0.00 | 0.00 | 0.00 | 87 | 1009.0 |
| 20260505114803 | 77 | 311 | 0.9 | 7.0 | 0.00 | 0.00 | 0.00 | 87 | 1009.1 |
| 20260505114558 | 76 | 183 | 0.0 | 8.7 | 0.00 | 0.00 | 0.00 | 86 | 1009.5 |
| 20260505114302 | 77 | 285 | 0.0 | 8.7 | 0.00 | 0.00 | 0.00 | 87 | 1009.1 |
| 20260505113802 | 77 | 133 | 1.7 | 8.7 | 0.00 | 0.00 | 0.00 | 87 | 1009.1 |
| 20260505113302 | 77 | 205 | 0.9 | 6.1 | 0.00 | 0.00 | 0.00 | 87 | 1009.2 |
| 20260505113249 | 77 | 311 | 1.7 | 7.8 | 0.00 | 0.00 | 0.00 | 87 | 1009.0 |
| 20260505113052 | 76 | 297 | 0.9 | 7.0 | 0.00 | 0.00 | 0.00 | 87 | 1009.5 |
| 20260505112305 | 77 | 11 | 0.0 | 7.8 | 0.00 | 0.00 | 0.00 | 87 | 1009.1 |
| 20260505111804 | 77 | 71 | 1.7 | 6.1 | 0.00 | 0.00 | 0.00 | 87 | 1009.0 |
| 20260505111550 | 77 | 171 | 1.7 | 7.0 | 0.00 | 0.00 | 0.00 | 87 | 1009.1 |
| 20260505111545 | 76 | 89 | 0.9 | 7.0 | 0.00 | 0.00 | 0.00 | 87 | 1009.3 |
| 20260505110803 | 77 | 346 | 0.9 | 7.0 | 0.00 | 0.00 | 0.00 | 87 | 1009.1 |
| 20260505110316 | 76 | 282 | 0.9 | 5.2 | 0.00 | 0.00 | 0.00 | 87 | 1009.1 |
| 20260505101804 | 76 | 173 | 0.0 | 4.3 | 0.00 | 0.00 | 0.00 | 88 | 1009.2 |
| 20260505101550 | 76 | 0 | 0.0 | 6.1 | 0.00 | 0.00 | 0.00 | 87 | 1009.4 |
| 20260505101304 | 76 | 297 | 0.0 | 7.0 | 0.00 | 0.00 | 0.00 | 88 | 1009.1 |
| 20260505100803 | 76 | 10 | 0.0 | 7.0 | 0.00 | 0.00 | 0.00 | 87 | 1009.1 |
| 20260505100303 | 76 | 87 | 0.0 | 7.0 | 0.00 | 0.00 | 0.00 | 87 | 1009.0 |
| 20260505100054 | 76 | 346 | 0.0 | 9.6 | 0.00 | 0.00 | 0.00 | 87 | 1009.3 |
| 20260505095802 | 76 | 334 | 0.0 | 9.6 | 0.00 | 0.00 | 0.00 | 87 | 1009.0 |
| 20260505095304 | 76 | 189 | 0.9 | 9.6 | 0.00 | 0.00 | 0.00 | 87 | 1008.9 |
| 20260505094803 | 76 | 240 | 0.0 | 6.1 | 0.00 | 0.00 | 0.00 | 87 | 1009.1 |
| 20260505094552 | 76 | 0 | 0.9 | 6.1 | 0.00 | 0.00 | 0.00 | 87 | 1009.3 |
| 20260505094521 | 76 | 50 | 0.0 | 6.1 | 0.00 | 0.00 | 0.00 | 88 | 1008.9 |
| 20260505093802 | 76 | 271 | 0.0 | 5.2 | 0.00 | 0.00 | 0.00 | 87 | 1009.0 |
| 20260505093302 | 76 | 254 | 0.9 | 6.1 | 0.00 | 0.00 | 0.00 | 87 | 1008.9 |
| 20260505093050 | 76 | 52 | 0.0 | 6.1 | 0.00 | 0.00 | 0.00 | 87 | 1009.2 |
| 20260505092801 | 76 | 231 | 0.9 | 6.1 | 0.00 | 0.00 | 0.00 | 87 | 1009.0 |
| 20260505092304 | 76 | 277 | 1.7 | 7.0 | 0.00 | 0.00 | 0.00 | 87 | 1009.0 |
| 20260505091804 | 76 | 304 | 0.0 | 7.8 | 0.00 | 0.00 | 0.00 | 87 | 1009.1 |
| 20260505091553 | 76 | 0 | 0.0 | 7.0 | 0.00 | 0.00 | 0.00 | 87 | 1009.4 |
| 20260505091523 | 76 | 146 | 1.7 | 7.8 | 0.00 | 0.00 | 0.00 | 87 | 1009.2 |
| 20260505090804 | 76 | 286 | 0.9 | 5.2 | 0.00 | 0.00 | 0.00 | 87 | 1009.1 |
| 20260505090303 | 76 | 341 | 0.9 | 5.2 | 0.00 | 0.00 | 0.00 | 87 | 1009.1 |
| 20260505090106 | 76 | 0 | 0.0 | 6.1 | 0.00 | 0.00 | 0.00 | 87 | 1009.4 |
| 20260505085803 | 76 | 252 | 0.0 | 4.3 | 0.00 | 0.00 | 0.00 | 87 | 1009.1 |
| 20260505085304 | 76 | 198 | 0.9 | 4.3 | 0.00 | 0.00 | 0.00 | 87 | 1009.3 |
| 20260505084803 | 76 | 136 | 0.9 | 7.0 | 0.00 | 0.00 | 0.00 | 87 | 1009.4 |
| 20260505084548 | 76 | 0 | 0.0 | 7.0 | 0.00 | 0.00 | 0.00 | 87 | 1009.7 |
| 20260505084304 | 76 | 229 | 0.0 | 7.0 | 0.00 | 0.00 | 0.00 | 87 | 1009.4 |
| 20260505083803 | 76 | 202 | 0.0 | 3.5 | 0.00 | 0.00 | 0.00 | 87 | 1009.5 |
| 20260505083303 | 76 | 179 | 0.0 | 3.5 | 0.00 | 0.00 | 0.00 | 87 | 1009.6 |
| 20260505083105 | 76 | 0 | 0.0 | 4.3 | 0.00 | 0.00 | 0.00 | 87 | 1010.0 |
| 20260505082804 | 76 | 356 | 0.0 | 3.5 | 0.00 | 0.00 | 0.00 | 87 | 1009.6 |
| 20260505082549 | 76 | 262 | 0.0 | 4.3 | 0.00 | 0.00 | 0.00 | 87 | 1009.8 |
| 20260505081804 | 76 | 207 | 0.9 | 4.3 | 0.00 | 0.00 | 0.00 | 87 | 1009.8 |
| 20260505081554 | 76 | 0 | 0.0 | 5.2 | 0.00 | 0.00 | 0.00 | 86 | 1010.1 |
| 20260505081525 | 76 | 191 | 0.0 | 4.3 | 0.00 | 0.00 | 0.00 | 87 | 1009.9 |
| 20260505080803 | 76 | 68 | 0.0 | 4.3 | 0.00 | 0.00 | 0.00 | 87 | 1009.8 |
| 20260505080303 | 76 | 257 | 0.0 | 5.2 | 0.00 | 0.00 | 0.00 | 87 | 1010.0 |
| 20260505080059 | 76 | 0 | 0.0 | 7.8 | 0.00 | 0.00 | 0.00 | 87 | 1010.4 |
| 20260505075803 | 76 | 259 | 0.0 | 6.1 | 0.00 | 0.00 | 0.00 | 87 | 1010.1 |
| 20260505075304 | 76 | 288 | 0.9 | 6.1 | 0.00 | 0.00 | 0.00 | 87 | 1010.0 |
| 20260505074803 | 76 | 155 | 0.0 | 2.6 | 0.00 | 0.00 | 0.00 | 87 | 1010.1 |
| 20260505074552 | 76 | 269 | 0.0 | 7.0 | 0.00 | 0.00 | 0.00 | 87 | 1010.4 |
| 20260505074524 | 76 | 233 | 0.0 | 7.8 | 0.00 | 0.00 | 0.00 | 87 | 1010.0 |
| 20260505073803 | 76 | 229 | 0.9 | 7.8 | 0.00 | 0.00 | 0.00 | 87 | 1010.1 |
| 20260505073304 | 76 | 231 | 0.0 | 3.5 | 0.00 | 0.00 | 0.00 | 87 | 1010.0 |
| 20260505073058 | 76 | 0 | 0.0 | 4.3 | 0.00 | 0.00 | 0.00 | 86 | 1010.2 |
| 20260505072804 | 76 | 282 | 0.0 | 3.5 | 0.00 | 0.00 | 0.00 | 87 | 1009.9 |
| 20260505072305 | 76 | 255 | 0.9 | 6.1 | 0.00 | 0.00 | 0.00 | 87 | 1010.0 |
| 20260505072051 | 76 | 300 | 0.0 | 6.1 | 0.00 | 0.00 | 0.00 | 87 | 1010.3 |
| 20260505071548 | 76 | 0 | 0.0 | 3.5 | 0.00 | 0.00 | 0.00 | 86 | 1010.5 |
| 20260505071525 | 76 | 20 | 0.0 | 3.5 | 0.00 | 0.00 | 0.00 | 87 | 1010.3 |
| 20260505070803 | 76 | 231 | 0.0 | 3.5 | 0.00 | 0.00 | 0.00 | 87 | 1010.5 |
| 20260505070303 | 76 | 323 | 0.0 | 3.5 | 0.00 | 0.00 | 0.00 | 87 | 1010.7 |
| 20260505070054 | 75 | 0 | 0.0 | 5.2 | 0.00 | 0.00 | 0.00 | 86 | 1011.0 |
| 20260505065803 | 76 | 129 | 0.0 | 3.5 | 0.00 | 0.00 | 0.00 | 87 | 1010.8 |
| 20260505065304 | 76 | 335 | 0.9 | 4.3 | 0.00 | 0.00 | 0.00 | 87 | 1010.8 |
| 20260505064807 | 76 | 101 | 0.0 | 10.4 | 0.00 | 0.00 | 0.00 | 87 | 1010.8 |
| 20260505064552 | 75 | 0 | 0.9 | 10.4 | 0.00 | 0.00 | 0.00 | 86 | 1011.2 |
| 20260505064522 | 76 | 329 | 1.7 | 10.4 | 0.00 | 0.00 | 0.00 | 87 | 1010.9 |
| 20260505063803 | 76 | 162 | 0.9 | 6.1 | 0.00 | 0.00 | 0.00 | 87 | 1011.0 |
| 20260505063303 | 76 | 120 | 1.7 | 6.1 | 0.00 | 0.00 | 0.00 | 87 | 1011.0 |
| 20260505063048 | 75 | 0 | 0.0 | 6.1 | 0.00 | 0.00 | 0.00 | 86 | 1011.3 |
| 20260505062801 | 76 | 251 | 0.9 | 6.1 | 0.00 | 0.00 | 0.00 | 87 | 1010.9 |
| 20260505062301 | 76 | 277 | 1.7 | 6.1 | 0.00 | 0.00 | 0.00 | 86 | 1010.9 |